AirNav  
 
 1083 users online  

O74 Elliot's Landing Airport
Mount Victory, Ohio, USA

GOING TO MOUNT VICTORY?


FAA INFORMATION EFFECTIVE 25 MARCH 2021

Location

FAA Identifier: O74
Lat/Long: 40-31-29.0000N 083-30-42.0000W
40-31.483333N 083-30.700000W
40.5247222,-83.5116667
(estimated)
Elevation: 1045 ft. / 319 m (estimated)
Variation: 05W (1995)
From city: 1 mile SE of MOUNT VICTORY, OH
Time zone: UTC -4 (UTC -5 during Standard Time)
Zip code: 43340

Airport Operations

Airport use: Open to the public
Activation date: 06/1995
Control tower: no
ARTCC: INDIANAPOLIS CENTER
FSS: DAYTON FLIGHT SERVICE STATION
NOTAMs facility: DAY (NOTAM-D service available)
Attendance: UNATNDD
Wind indicator: yes
Segmented circle: no

Airport Communications

CTAF: 122.9
WX AWOS-2 at I95 (8 nm NW): 126.4 (419-675-0781)
WX AWOS-3 at EDJ (17 nm SW): 118.075 (937-599-4654)
WX AWOS-3 at MRT (19 nm S): 119.275 (937-644-2967)

Nearby radio navigation aids

VOR radial/distance  VOR name  Freq  Var
BUDr260/(21.1)BUCKEYE VOR109.8005W
FBCr159/28.1FLAG CITY VORTAC108.2002W
RODr065/28.1ROSEWOOD VORTAC117.5005W

 
NDB name  Hdg/Dist  Freq  Var  ID
TIFFIN207/36.826905WTII - .. ..

Airport Services

Runway Information

Runway 15/33

Dimensions: 2750 x 110 ft. / 838 x 34 m
Surface: turf, in good condition
Runway edge markings: 15/33 MKD WITH TIRES ON EACH END.
RUNWAY 15  RUNWAY 33
Traffic pattern: leftleft
Obstructions: 3 ft. crops, 100 ft. left of centerline
+72 FT TREE 855 FM 87 FT LEFT OBST CLNS SLOPE 11:1.
6 ft. crops, 75 ft. left of centerline

Airport Ownership and Management from official FAA records

Ownership: Privately-owned
Owner: ELLIOT & ELLIOTT INC
PO BOX 173
MT VICTORY, OH 43340-0257
Phone 937-354-2851
Manager: DAVID WAGNER
491 S MAIN ST
MT VICTORY, OH 43340-0257
Phone 937-354-2851
ALT CTC SCOTT ELLIOT (937) 645-0631.

Airport Operational Statistics

Aircraft operations: avg 30/week *
100% transient general aviation
* for 12-month period ending 11 September 2019

Additional Remarks

FOR CD CTC INDIANAPOLIS ARTCC AT 317-247-2411.

Instrument Procedures

There are no published instrument procedures at O74.

Some nearby airports with instrument procedures:

I95 - Hardin County Airport (8 nm NW)
KEDJ - Bellefontaine Regional Airport (17 nm SW)
KMRT - Union County Airport (19 nm S)
KMNN - Marion Municipal Airport (21 nm E)
56D - Wyandot County Airport (23 nm NE)
 
Loc | Ops | Rwys | IFR | FBO | Links
Com | Nav | Svcs | Stats | Notes
Area around O74 (Elliot's Landing Airport)
 
Road maps at: MapQuest Bing Google
 
Aerial photo
WARNING: Photo may not be current or correct
Aerial photo of O74 (Elliot's Landing Airport)
Do you have a better or more recent aerial photo of Elliot's Landing Airport that you would like to share? If so, please send us your photo.

 
Sectional chart

 
Airport distance calculator
Flying to Elliot's Landing Airport? Find the distance to fly.

From to O74

Sunrise and sunset
Times for 10-Apr-2021
 Local
(UTC-4)
 Zulu
(UTC)
Morning civil twilight06:3610:36
Sunrise07:0411:04
Sunset20:0700:07
Evening civil twilight20:3500:35

Current date and time
Zulu (UTC)  10-Apr-2021 20:22:42
Local (UTC-4)  10-Apr-2021 16:22:42
 
METAR
KEDJ 
17nm SW 
101955Z AUTO 22010G14KT 5SM SCT035 BKN045 OVC085 18/15 A2961 RMK AO1 P0004
KMRT 
19nm S 
101955Z AUTO 25010G14KT 7SM SCT065 SCT075 BKN090 19/14 A2960 RMK AO2 P0001 T01900140
KMNN 
21nm E 
101953Z AUTO 16012KT 10SM FEW070 23/11 A2958 RMK AO2 SLP012 T02330106
KDLZ 
23nm SE 
101955Z AUTO 17009G14KT 10SM BKN070 BKN075 OVC090 23/10 A2958 RMK AO2
KAOH 
25nm NW 
101953Z AUTO 20010G15KT 8SM -RA FEW043 SCT055 OVC090 19/14 A2958 RMK AO2 PK WND 20026/1907 RAB28 SLP014 P0001 T01890144
KI74 
26nm SW 
101955Z AUTO 21008G14KT 7SM -RA SCT046 BKN055 OVC070 17/13 A2961 RMK AO2 P0001
KFDY 
30nm N 
101953Z AUTO 17014KT 10SM CLR 23/12 A2956 RMK AO2 SLP001 T02330117
KOSU 
33nm SE 
101953Z 18010KT 10SM BKN060 BKN100 24/11 A2957 RMK AO2 SLP008 T02390111
TAF
KFDY 
30nm N 
101723Z 1018/1118 16012KT P6SM BKN100 FM102100 16010G20KT 4SM -SHRA BR OVC045 TEMPO 1022/1102 1SM TSRA BR OVC015CB FM110200 19015G25KT 6SM -SHRA BR OVC015 TEMPO 1102/1103 4SM TSRA BR OVC009CB FM110300 20015G25KT P6SM OVC025 FM110500 22013KT P6SM BKN060 FM111300 19014KT P6SM BKN025
NOTAMs
Click for the latest NOTAMs
NOTAMs are issued by the DoD/FAA and will open in a separate window not controlled by AirNav.

 

 
 

Would you like to see your business listed on this page?

 If your business provides an interesting product or service to pilots, flight crews, aircraft, or users of the Elliot's Landing Airport, you should consider listing it here.  To start the listing process, click on the button below
 
Add a business
 

Other Pages about Elliot's Landing Airport

Update a link
 
Copyright © AirNav, LLC. All rights reserved. Privacy Policy  Contact